Content
SEND FEEDBACK

Daily
Averages
Monthly
Summary
Turkmenistan

ASHGABAT, TURKMENISTAN


Home > Asia > Turkmenistan
Elevation: 775 feet     Latitude: 37 58N     Longitude: 058 20E

WEATHER
 
SELECT A DAY
Number of Records: 177,354;   Date Range: 3/15/97 - 8/12/14
 
SHARE

PRINT THIS DATA

[ ← Previous Day ]
WEATHER ALMANAC - JANUARY 17, 2014
[ Next Day → ]
[ °C ]   °F
Weather ElementAverageHighLow
Temperature40.2 °F57.2 °F (3:00 pm)26.6 °F (5:00 am)
Dewpoint27.7 °F39 °F (8:00 pm)23 °F (2:00 pm)
Humidity64 %100 % (7:00 am)24 % (5:00 pm)
Barometer30.15 in30.41 in (2:00 am)29.98 in (7:00 pm)
Wind Speed7.3 mph13.4 mph (1:00 pm)
Weather ElementAverage
Visibility6 mi
Wind DirectionSSE (163.2 °)

Weather ElementTotal
Precipitation---
Heating Degree Days23.1 (Base 65)
Averaged from 31 records on January 17, 2014
WEATHER CONDITIONS BREAKOUT
WIND DIRECTION BREAKOUT
WEATHER BY HOUR - JANUARY 17, 2014
[ °C ]   °F
Local TimeTemperatureDewpointHumidityBarometerVisibilityWind DirectionWind SpeedGust SpeedPrecipitationEventsConditions
1:00 AM35.6 °F30.2 °F81 %30.39 in6.2 miEast (90°)6.7 mphClear
2:00 AM33.0 °F30.0 °F82 %30.41 in6.0 miSE (140°)2.2 mph
2:00 AM32.0 °F30.2 °F93 %30.36 in6.2 miVariable2.2 mphClear
3:00 AM30.2 °F28.4 °F93 %30.33 in6.2 miCalmClear
4:00 AM30.2 °F26.6 °F86 %30.30 in5.6 miEast (90°)6.7 mphClear
5:00 AM28.0 °F25.0 °F85 %30.33 in6.0 miSSE (150°)4.5 mph
5:00 AM26.6 °F24.8 °F93 %30.27 in6.2 miSE (130°)4.5 mphClear
6:00 AM28.4 °F26.6 °F93 %30.24 in5.6 miEast (100°)4.5 mphClear
7:00 AM26.6 °F26.6 °F100 %30.21 in6.2 miESE (120°)6.7 mphClear
8:00 AM27.0 °F25.0 °F88 %30.26 in6.0 miESE (120°)6.7 mph
8:00 AM26.6 °F24.8 °F93 %30.18 in6.2 miESE (120°)8.9 mphMostly Cloudy
9:00 AM30.2 °F26.6 °F86 %30.18 in5.6 miEast (90°)8.9 mphMostly Cloudy
10:00 AM33.8 °F26.6 °F75 %30.15 in6.2 miESE (110°)8.9 mphMostly Cloudy
11:00 AM38.0 °F29.0 °F59 %30.20 in6.0 miESE (120°)11.2 mphClear
11:00 AM39.2 °F28.4 °F65 %30.15 in6.2 miESE (120°)11.2 mphMostly Cloudy
12:00 PM46.4 °F26.6 °F46 %30.12 in6.2 miESE (120°)11.2 mphMostly Cloudy
1:00 PM51.8 °F24.8 °F35 %30.06 in6.2 miESE (120°)13.4 mphMostly Cloudy
2:00 PM53.0 °F30.0 °F29 %30.07 in6.0 miSE (130°)8.9 mphOvercast
2:00 PM53.6 °F23.0 °F30 %30.04 in6.2 miSE (130°)8.9 mphOvercast
3:00 PM57.2 °F23.0 °F27 %30.01 in6.2 miSE (130°)6.7 mphOvercast
4:00 PM55.4 °F24.8 °F31 %30.01 in6.2 miSW (230°)4.5 mphOvercast
5:00 PM54.0 °F28.0 °F24 %30.02 in6.0 miWSW (250°)4.5 mphOvercast
5:00 PM53.6 °F24.8 °F33 %30.01 in5.6 miWest (260°)4.5 mphOvercast
6:00 PM51.8 °F28.4 °F41 %30.01 in6.2 miWNW (300°)4.5 mphOvercast
7:00 PM46.4 °F28.4 °F50 %29.98 in5.0 miWest (280°)6.7 mphOvercast
8:00 PM47.0 °F39.0 °F66 %30.05 in6.0 miWNW (290°)13.4 mphPartly Cloudy
8:00 PM46.4 °F30.2 °F53 %30.04 in6.2 miWNW (290°)13.4 mphMostly Cloudy
9:00 PM42.8 °F30.2 °F61 %30.04 in6.2 miWest (270°)8.9 mphMostly Cloudy
10:00 PM42.8 °F30.2 °F61 %30.04 in6.2 miWest (260°)8.9 mphMostly Cloudy
11:00 PM40.0 °F31.0 °F60 %30.08 in6.0 miWSW (250°)6.7 mphClear
11:00 PM39.2 °F28.4 °F65 %30.04 in6.2 miWSW (250°)6.7 mphMostly Cloudy
Hourly data recorded from UTAA, located miles away from Ashgabat, Turkmenistan







STORIES FROM OUR PARTNERS